Stations météo

Publicité
Gourette, France (7775): Température de l'air & dewpoint: 11.12.2017 22:00:00 - 17.12.2017 22:00:00 (CET)Gourette, France (7775): Vitesse du vent & gusts: 11.12.2017 22:00:00 - 17.12.2017 22:00:00 (CET)Gourette, France (7775): Direction du vent: 11.12.2017 22:00:00 - 17.12.2017 22:00:00 (CET)Gourette, France (7775): reduced air pressure: 11.12.2017 22:00:00 - 17.12.2017 22:00:00 (CET)Gourette, France (7775): visibility: 11.12.2017 22:00:00 - 17.12.2017 22:00:00 (CET)Gourette, France (7775): Quantités de précipitations: 11.12.2017 22:00:00 - 17.12.2017 22:00:00 (CET)
Date & Time tt [°C] td [°C] ff [km/h] ff [knt] fx [km/h] fx [knt] dd ppp [hPa] vv [km] rr [mm]
17.12.2017 22:00:00 8,6 -4,6 16 9 25 13 NW 1022,4 - 0,0
17.12.2017 21:00:00 8,7 -4,9 16 8 23 12 WNW 1022,2 - 0,0
17.12.2017 20:00:00 8,5 -4,4 19 11 23 12 NW 1021,8 - 0,0
17.12.2017 19:00:00 8,4 -4,4 18 10 26 14 NW 1021,1 - 0,0
17.12.2017 18:00:00 8,5 -4,7 20 11 29 16 NW 1020,4 - 0,0
17.12.2017 17:00:00 8,5 -3,7 18 10 23 12 NW 1019,4 - 0,0
17.12.2017 16:00:00 9,0 -2,9 8 4 29 15 NW 1019,2 25 0,0
17.12.2017 15:00:00 9,7 -2,9 20 11 37 20 NW 1018,4 - 0,0
17.12.2017 14:00:00 10,6 -2,8 12 6 36 19 N 1018,1 - 0,0
17.12.2017 13:00:00 12,8 -3,1 24 13 42 23 NNW 1018,0 25 0,0
17.12.2017 12:00:00 10,5 -2,2 14 7 40 22 N 1018,3 - 0,0
17.12.2017 11:00:00 10,0 -1,7 22 12 49 27 N 1018,5 - 0,0
17.12.2017 10:00:00 9,8 -0,7 15 8 22 12 NNW 1017,5 - 0,0
17.12.2017 09:00:00 9,8 -1,9 14 8 23 12 NW 1016,8 - 0,0
17.12.2017 08:00:00 8,3 -1,8 19 11 27 14 NW 1016,1 - 0,0
17.12.2017 07:00:00 8,0 -2,6 20 11 28 15 NW 1015,6 - 0,0
17.12.2017 06:00:00 7,9 -3,3 17 9 26 14 NW 1015,0 - 0,0
17.12.2017 05:00:00 8,5 -3,1 19 10 24 13 NW 1014,5 - 0,0
17.12.2017 04:00:00 8,6 -2,1 8 4 21 11 WNW 1014,2 - 0,0
17.12.2017 03:00:00 9,0 -3,2 16 9 21 12 NW 1014,1 - 0,0
17.12.2017 02:00:00 5,8 -2,8 12 7 16 9 SW 1013,8 - 0,0
17.12.2017 01:00:00 7,8 -1,2 6 4 18 10 N 1013,2 - 0,0
17.12.2017 00:00:00 9,1 -3,8 9 5 24 13 NNW 1012,9 - 0,0
16.12.2017 23:00:00 5,5 1,4 19 10 24 13 SW 1012,4 - 0,0
16.12.2017 22:00:00 7,0 2,9 9 5 37 20 WNW 1011,9 - 0,0
16.12.2017 21:00:00 6,7 3,3 23 12 52 28 N 1011,4 - 0,0
16.12.2017 20:00:00 7,2 3,4 37 20 76 41 N 1011,0 - 0,6
16.12.2017 19:00:00 10,1 -1,0 26 14 49 26 N 1009,6 20 0,0
16.12.2017 18:00:00 10,1 -2,3 16 8 34 18 NW 1008,4 - 0,0
16.12.2017 17:00:00 10,4 -2,6 14 7 39 21 NW 1007,3 - 0,0
16.12.2017 16:00:00 11,5 -2,3 15 8 33 18 NNW 1006,3 - 0,0
16.12.2017 15:00:00 10,5 2,3 8 4 24 13 W 1005,4 - 0,0
16.12.2017 14:00:00 9,5 2,3 15 8 60 33 NE 1005,9 - 0,2
16.12.2017 13:00:00 13,9 -1,7 16 8 56 30 N 1004,7 10 0,0
16.12.2017 12:00:00 12,5 1,2 21 12 39 21 SSW 1004,0 - 0,0
16.12.2017 11:00:00 11,3 1,0 18 10 34 19 SW 1004,9 - 0,0
16.12.2017 10:00:00 9,5 0,1 23 13 53 29 SW 1005,1 20 0,0
16.12.2017 09:00:00 10,8 -1,6 43 23 59 32 SW 1003,3 - 0,0
16.12.2017 08:00:00 9,3 -2,3 24 13 34 18 S 1003,0 - 0,0
16.12.2017 07:00:00 9,4 -1,7 18 10 24 13 S 1002,6 30 0,0
16.12.2017 06:00:00 9,5 -1,3 13 7 33 18 S 1002,3 - 0,0
16.12.2017 05:00:00 10,0 0,0 20 11 33 18 SSE 1001,5 - 0,0
16.12.2017 04:00:00 9,8 0,1 12 6 34 18 SSE 1001,8 30 0,0
16.12.2017 03:00:00 10,4 0,4 18 10 45 24 SSE 1001,5 - 0,0
16.12.2017 02:00:00 10,6 -0,6 9 5 34 19 ENE 1001,4 - 0,0
16.12.2017 01:00:00 10,6 -1,5 11 6 53 29 S 1001,6 - 0,0
16.12.2017 00:00:00 11,1 -1,7 6 3 75 41 S 1001,4 - 0,0
15.12.2017 23:00:00 12,6 -4,1 33 18 76 41 W 1000,3 - 0,0
15.12.2017 22:00:00 11,7 -2,2 28 15 61 33 WSW 1000,1 - 0,0
15.12.2017 21:00:00 10,5 -0,6 21 11 66 36 SW 1000,2 - 0,0
15.12.2017 20:00:00 11,2 1,7 22 12 63 34 WSW 999,4 - 0,0
15.12.2017 19:00:00 9,8 4,6 17 9 36 19 SSW 998,6 20 0,0
15.12.2017 18:00:00 10,4 6,2 22 12 33 18 SSW 998,2 - 0,0
15.12.2017 17:00:00 11,6 7,7 20 11 28 15 SSW 998,5 - 0,0
15.12.2017 16:00:00 11,9 10,1 13 7 18 10 WSW 998,8 25 0,0
15.12.2017 15:00:00 12,4 10,5 10 5 19 10 W 998,8 - 0,2
15.12.2017 14:00:00 12,0 9,6 16 8 18 10 NNW 999,4 - 1,4
15.12.2017 13:00:00 12,7 9,5 13 7 22 12 N 1000,1 18 0,0
15.12.2017 12:00:00 12,4 9,6 14 8 22 12 N 1001,1 20 1,2
15.12.2017 11:00:00 13,3 8,8 14 8 21 11 N 1001,8 - 0,0
15.12.2017 10:00:00 13,0 7,4 10 6 22 12 SSW 1002,6 20 0,0
15.12.2017 09:00:00 11,5 6,4 19 11 24 13 SW 1002,9 - 0,0
15.12.2017 08:00:00 11,5 5,1 15 8 21 11 SW 1003,1 - 0,0
15.12.2017 07:00:00 12,2 5,4 8 4 15 8 SW 1003,7 15 0,0
15.12.2017 06:00:00 13,0 4,7 6 3 12 6 E 1004,4 - 0,0
15.12.2017 05:00:00 13,3 6,4 6 3 19 10 NW 1005,4 - 0,0
15.12.2017 04:00:00 13,3 4,2 9 5 32 17 NNE 1006,0 - 0,0
15.12.2017 03:00:00 11,5 4,5 15 8 27 15 SSW 1006,5 - 0,0
15.12.2017 02:00:00 11,7 4,4 18 10 23 12 SW 1006,7 - 0,0
15.12.2017 01:00:00 11,6 4,8 16 9 26 14 SW 1007,0 - 0,0
15.12.2017 00:00:00 12,1 4,8 10 5 31 17 SW 1007,9 - 0,0
14.12.2017 23:00:00 11,9 4,4 20 11 30 16 SW 1008,2 - 0,0
14.12.2017 22:00:00 12,5 4,0 11 6 19 11 SSW 1008,8 - 0,0
14.12.2017 21:00:00 14,0 4,0 13 7 33 18 S 1009,4 - 0,0
14.12.2017 20:00:00 14,0 3,7 18 10 37 20 WSW 1009,5 - 0,0
14.12.2017 19:00:00 13,2 4,3 23 13 29 16 WSW 1009,9 - 0,0
14.12.2017 18:00:00 14,7 4,1 4 2 29 15 WNW 1009,7 - 0,0
14.12.2017 17:00:00 14,1 4,4 28 15 43 23 SW 1009,6 - 0,0
14.12.2017 16:00:00 17,2 3,8 21 12 48 26 SW 1009,7 - 0,0
14.12.2017 15:00:00 18,2 4,0 35 19 56 30 SW 1009,3 - 0,0
14.12.2017 14:00:00 18,1 5,0 34 18 56 31 SSW 1010,2 - 0,0
14.12.2017 13:00:00 17,9 5,5 39 21 53 28 SSW 1010,1 15 0,0
14.12.2017 12:00:00 16,1 7,8 34 19 48 26 SSW 1011,4 - 0,0
14.12.2017 11:00:00 15,5 8,0 24 13 41 22 SSW 1012,0 - 0,0
14.12.2017 10:00:00 14,2 7,5 32 17 44 24 SSW 1012,3 14 0,0
14.12.2017 09:00:00 11,5 7,2 19 10 37 20 SSW 1012,1 - 0,0
14.12.2017 08:00:00 10,7 6,6 24 13 36 20 SSW 1012,1 - 0,0
14.12.2017 07:00:00 11,4 5,7 28 15 46 25 SSW 1012,5 15 0,0
14.12.2017 06:00:00 12,5 4,5 31 17 54 29 SSW 1012,7 - 0,0
14.12.2017 05:00:00 12,1 4,3 25 14 40 21 SW 1012,9 - 0,0
14.12.2017 04:00:00 10,0 1,6 21 11 31 17 SW 1013,5 - 0,0
14.12.2017 03:00:00 11,3 0,7 6 4 15 8 NNE 1014,3 - 0,0
14.12.2017 02:00:00 10,4 -0,7 2 1 17 9 WSW 1015,0 - 0,0
14.12.2017 01:00:00 10,9 1,1 13 7 34 18 SW 1015,4 - 0,0
14.12.2017 00:00:00 10,7 1,0 20 11 46 25 SSW 1015,9 - 0,0
13.12.2017 23:00:00 11,1 0,8 29 15 53 28 WSW 1017,0 - 0,0
13.12.2017 22:00:00 9,4 0,0 24 13 34 18 WSW 1017,3 - 0,0
13.12.2017 21:00:00 9,8 -0,7 24 13 33 18 SSW 1017,8 - 0,0
13.12.2017 20:00:00 10,5 -1,6 22 12 37 20 WSW 1017,9 - 0,0
13.12.2017 19:00:00 10,6 -1,2 19 11 34 19 WSW 1018,0 - 0,0
13.12.2017 18:00:00 10,4 -1,7 20 11 32 17 WSW 1018,0 - 0,0
13.12.2017 17:00:00 11,8 -2,1 18 10 41 22 WSW 1018,0 - 0,0
13.12.2017 16:00:00 14,2 -1,5 19 10 32 17 WSW 1017,8 30 0,0
13.12.2017 15:00:00 16,6 -0,6 16 8 33 18 WSW 1017,0 - 0,0
13.12.2017 14:00:00 17,2 -4,1 13 7 32 17 W 1016,9 - 0,0
13.12.2017 13:00:00 17,3 -4,1 21 11 33 18 SW 1016,9 - 0,0
13.12.2017 12:00:00 17,1 -5,4 20 11 30 16 SSW 1017,5 - 0,0
13.12.2017 11:00:00 16,0 -4,6 14 7 20 11 S 1018,1 - 0,0
13.12.2017 10:00:00 13,2 -0,5 11 6 18 10 SW 1018,3 - 0,0
13.12.2017 09:00:00 10,6 -2,1 10 5 18 10 SW 1018,1 - 0,0
13.12.2017 08:00:00 9,6 -1,8 16 9 22 12 NNW 1017,8 - 0,0
13.12.2017 07:00:00 9,1 0,8 11 6 23 12 WSW 1017,0 15 0,0
13.12.2017 06:00:00 9,4 2,5 10 6 19 10 SW 1016,5 - 0,0
13.12.2017 05:00:00 10,7 3,5 5 3 18 10 ENE 1016,4 - 0,0
13.12.2017 04:00:00 11,9 2,3 5 3 30 16 NW 1016,0 15 0,0
13.12.2017 03:00:00 9,1 3,7 18 10 29 16 SW 1016,3 - 0,0
13.12.2017 02:00:00 9,7 4,3 14 8 26 14 SW 1016,1 - 0,0
13.12.2017 01:00:00 9,1 4,9 20 11 24 13 SW 1015,8 - 0,0
13.12.2017 00:00:00 11,5 4,2 8 5 13 7 SSW 1015,8 - 0,0
12.12.2017 23:00:00 10,9 5,4 11 6 16 8 SW 1015,9 - 0,0
12.12.2017 22:00:00 10,7 6,4 11 6 13 7 WSW 1015,5 - 0,0
12.12.2017 21:00:00 11,5 7,0 8 4 16 9 W 1015,5 - 0,0
12.12.2017 20:00:00 12,1 7,4 14 7 18 10 ESE 1014,9 - 0,0
12.12.2017 19:00:00 12,3 5,0 4 2 16 9 WSW 1014,3 15 0,0
12.12.2017 18:00:00 12,5 5,6 11 6 19 10 WNW 1013,6 - 0,0
12.12.2017 17:00:00 12,9 8,8 13 7 16 8 NNW 1013,1 - 0,0
12.12.2017 16:00:00 13,6 9,8 3 2 9 5 SE 1012,5 - 0,0
12.12.2017 15:00:00 13,9 9,9 9 5 18 10 N 1011,6 - 0,0
12.12.2017 14:00:00 14,4 10,2 13 7 17 9 NE 1011,3 - 0,0
12.12.2017 13:00:00 14,3 9,1 10 6 16 9 NNW 1011,2 - 0,0
12.12.2017 12:00:00 14,2 9,0 9 5 22 12 N 1011,1 - 0,0
12.12.2017 11:00:00 14,3 8,5 10 5 21 11 N 1011,1 - 0,0
12.12.2017 10:00:00 13,9 8,3 15 8 20 11 N 1010,5 18 0,0
12.12.2017 09:00:00 14,3 5,1 6 4 27 15 N 1009,2 - 0,0
12.12.2017 08:00:00 14,8 3,9 9 5 29 16 W 1008,5 - 0,0
12.12.2017 07:00:00 15,4 3,8 21 11 29 16 SSW 1007,3 18 0,0
12.12.2017 06:00:00 13,7 5,3 14 8 37 20 SW 1006,3 - 0,0
12.12.2017 05:00:00 15,8 4,8 23 12 46 25 SSW 1005,0 - 0,0
12.12.2017 04:00:00 15,2 7,5 5 3 31 17 SW 1004,6 15 0,0
12.12.2017 03:00:00 15,5 9,6 7 4 40 22 NE 1003,7 - 0,0
12.12.2017 02:00:00 17,0 8,2 28 15 70 38 WSW 1001,4 - 0,0
12.12.2017 01:00:00 16,6 9,8 44 24 69 38 SW 999,8 - 0,0
12.12.2017 00:00:00 16,9 9,1 46 25 97 52 SSW 998,6 - 0,0
11.12.2017 23:00:00 18,4 7,8 61 33 95 51 SSW 997,2 - 0,0
11.12.2017 22:00:00 19,3 6,4 56 31 85 46 SSW 997,1 - 0,0

tt = Température de l'air
td = dewpoint
ff = Vitesse du vent
fx = gusts
dd = Direction du vent
ppp = reduced air pressure
vv = visibility
rr = Quantités de précipitations

stations d'obs. à proximité